Regional Weather Roundup
Issued by NWS Wakefield, VA

Home | Current Version | Previous Version | Graphics & Text | Print | Product List | Glossary On
Versions: 1 2 3 4 5 6 7 8 9 10 11 12 13 14 15 16 17 18 19 20 21 22 23 24 25 26 27 28 29 30 31 32 33 34 35 36 37 38 39 40 41 42 43 44 45 46 47 48 49 50
000
ASUS41 KAKQ 282115
RWRAKQ

REGIONAL WEATHER ROUNDUP
NATIONAL WEATHER SERVICE WAKEFIELD VA
500 PM EDT THU APR 28 2016

Note: "fair" indicates few or no clouds below 12,000 feet with no
significant weather and/or obstructions to visibility. * = Denotes
station may not report precipitation (e.g., rain,snow,etc.),
thunder or fog.

VAZ042-051-052>054-056-282200-
NORTHERN VIRGINIA

CITY           SKY/WX    TMP DP  RH WIND       PRES   REMARKS
WASH NATIONAL  DRIZZLE   52  51  97 NE14      29.97S FOG
DULLES         DRIZZLE   52  51  97 NE8       29.96F FOG
FORT BELVOIR   CLOUDY    54  52  94 SE2       29.96S
QUANTICO       LGT RAIN  56  52  86 SE12      29.95F
FREDERICKSBRG* CLOUDY    55  55 100 E6        29.95R FOG
STAFFORD*      LGT RAIN  54  52  93 E9        29.98F
WARRENTON      LGT RAIN  55  50  83 E5        29.94F
CULPEPER*      LGT RAIN  55  54  97 CALM      29.96S
MANASSAS*      CLOUDY    54  54 100 CALM      29.96F
LEESBURG*      CLOUDY    50  50 100 N7        29.97F FOG
WINCHESTER     FOG       50  50 100 CALM      29.95F VSB 1
FRONT ROYAL*   CLOUDY    52  50  93 E9G16     29.93R
LURAY*         CLOUDY    57  57 100 NE7       29.91S
$$

VAZ048-049-060>072-079>083-282200-
CENTRAL AND SOUTH CENTRAL VIRGINIA

CITY           SKY/WX    TMP DP  RH WIND       PRES   REMARKS
RICHMOND       CLOUDY    59  57  93 SE8       29.91F FOG
CHESTERFIELD*  CLOUDY    61  48  63 E6        29.92S
PETERSBURG*    CLOUDY    64  64  97 NE7       29.91R
HANOVER        CLOUDY    58  55  90 VRB3      29.95R FOG
TAPPAHANNOCK*  CLOUDY    56  56 100 E8        29.94S FOG
QUINTON*       CLOUDY    58  57  96 E6        29.91S
CHARLOTTSVILLE LGT RAIN  58  55  90 NE7       29.91R
GORDONSVILLE*  CLOUDY    56  56  99 NE5       29.92F
ORANGE*        TSTM      55  55 100 NE7       29.93F
LOUISA*        CLOUDY    61  57  88 E6        29.92S FOG
BUMPASS*       CLOUDY    55  55  98 CALM      29.94R
FARMVILLE*     CLOUDY    62  62 100 N8        29.89S FOG
CREWE*         CLOUDY    62  62 100 NE5       29.90R
FORT PICKETT*  NOT AVBL
CHASE CITY*    CLOUDY    65  63  94 NE3       29.86S
CLARKSVILLE*   FAIR      72  68  88 NE6       29.84S
SOUTH HILL*    CLOUDY    64  63  94 CALM      29.92R
LAWRENCEVILLE* CLOUDY    66  64  93 CALM      29.88R
EMPORIA*       CLOUDY    63  61  94 NE8       29.89S
$$

VAZ088>098-282200-
SOUTHEAST VIRGINIA

CITY           SKY/WX    TMP DP  RH WIND       PRES   REMARKS
NORFOLK        CLOUDY    57  54  89 NE8       29.91R FOG
VIRGINIA BEACH CLOUDY    61  55  81 NE7       29.91R FOG
NORFOLK NAVAL  FOG       57  55  93 NE8       29.94R VSB 1
WEST POINT*    CLOUDY    58  56  93 E6        29.94S
SALUDA*        CLOUDY    55  55  97 E5        29.94R
NEWPORT NEWS   CLOUDY    58  56  93 E9        29.93R
LANGLEY AFB    CLOUDY    57  56  94 E7        29.92R
FORT EUSTIS    CLOUDY    59  58  96 NE7       29.90S
WILLIAMSBURG*  CLOUDY    61  57  88 CALM      29.93S
HR EXEC AP*    CLOUDY    63  59  88 N7        29.93R
FRANKLIN*      CLOUDY    65  60  86 NE8       29.89F
US460-WAKEFLD  CLOUDY    62  58  86 VRB7      29.90F
$$

VAZ020-022-025-037-045-282200-
WEST CENTRAL AND SOUTHWEST VIRGINIA

CITY           SKY/WX    TMP DP  RH WIND       PRES   REMARKS
STAUNTON*      CLOUDY    60  59  97 NW7       29.92R
WAYNESBORO*    MOCLDY    57  55  94 MISG      29.89S
HOT SPRINGS VA TSTM      66  57  71 W8G18     29.91R
LYNCHBURG      CLOUDY    60  59  96 NE9       29.89R FOG
DANVILLE       FAIR      79  66  64 VRB3      29.82S
SOUTH BOSTON*  MOCLDY    69  68  95 N6        29.85R
MARTINSVILLE   FAIR      75  60  60 CALM      29.86R
ROANOKE        PTSUNNY   72  63  73 E14G28    29.85R
BLACKSBURG     FAIR      81  52  36 SW9G17    29.88S
DUBLIN*        FAIR      81  51  35 W14G22    29.87R
MARION*        FAIR      76  53  44 W17G23    29.92S
HILLSVILLE*    CLOUDY    72  62  72 W5        29.88S
RICHLANDS*     MOCLDY    75  37  25 SW9       29.91S
WISE*          FAIR      73  46  38 SW13      29.93S
ABINGDON*      FAIR      78  53  40 W17       29.89F
$$

MDZ021>025-VAZ099-100-282200-
SOUTHERN MARYLAND AND THE DELMARVA PENINSULA

CITY           SKY/WX    TMP DP  RH WIND       PRES   REMARKS
PATUXENT RIVER DRIZZLE   53  51  93 E8        29.96S FOG
BAY BRIDGE APT NOT AVBL
LEONARDTOWN    CLOUDY    52  50  93 E3        29.96F
DOVER          CLOUDY    49  45  87 NE10      30.00R
GEORGETOWN     CLOUDY    49  47  93 E8        29.98F FOG
EASTON         CLOUDY   N/A N/A N/A E10       30.02R HAZE
CAMBRIDGE      CLOUDY    46  45  93 NE6       29.97S
SALISBURY      CLOUDY    50  49  96 NE8       29.96S FOG
OCEAN CITY     CLOUDY    51  50  96 E10       29.97R FOG
WALLOPS ISLAND CLOUDY    53  52  96 NE17      29.95F FOG
ACCOMACK*      CLOUDY   N/A N/A N/A E9        29.94R FOG
$$

NCZ012>017-030>032-282200-
NORTH CENTRAL AND EASTERN NORTH CAROLINA

CITY           SKY/WX    TMP DP  RH WIND       PRES   REMARKS
ROANOKE RAPIDS FAIR      79  68  69 CALM      29.85S
RALEIGH        CLOUDY    80  64  58 W5        29.82F
ELIZABETH CITY SUNNY     71  64  78 E6        29.88F
AHOSKIE*       SUNNY     75  67  77 NE5       29.86F
EDENTON*       SUNNY     71  65  82 E10       29.88S
CURRITUCK*     PTSUNNY   68  63  84 NE6       29.90R
KILL DEVIL HLS CLOUDY    70  60  72 E7        29.87F
MANTEO         NOT AVBL
CAPE HATTERAS  MOSUNNY   72  67  84 SW15G22   29.88F
TARBORO*       MOCLDY    84  67  55 SW3       29.84F
GOLDSBORO      MOSUNNY   86  63  45 W14       29.82F
WASHINGTON     MOSUNNY   84  66  54 SW7       29.83S
GREENVILLE     MOSUNNY   86  66  51 SW13      29.85F
NEW BERN       PTSUNNY   86  64  47 SW9G18    29.86S
WILMINGTON     SUNNY     84  63  49 SW12      29.88S
$$

VAZ048-282200-
ELSEWHERE

CITY           SKY/WX    TMP DP  RH WIND       PRES   REMARKS
HARRISBURG PA  LGT RAIN  45  43  93 NE6       30.02S FOG
BALTIMORE      CLOUDY    49  43  80 E15       29.98F
ANNAPOLIS      LGT RAIN  50  46  86 E10       29.99R
ANDREWS AFB    CLOUDY    50  48  93 E8        29.95F FOG
PHILADELPHIA   CLOUDY    49  36  61 NE12      30.04S
HENDERSON NC   CLOUDY    79  66  64 CALM      29.84R
GREENSBORO     PTSUNNY   79  64  60 S7        29.81F
ROCKY MOUNT    SUNNY     84  66  54 SW8       29.83F
$$

VAZ100-282200-
MARINE

STATION/POSITION TIME  TEMP    WIND        PRES    WAVE   SWELL
                       AIR SEA DIR/SP/G            HT/PER HT/PER
                 (UTC) (F)     (DEG/KT/KT) (MB)    (FT/S) (FT/S)
BRANDYWINE LGT   2000   47      80/ 17/ 19 1015.4S
CAPE MAY NJ      2000   47 58   70/ 13/ 17 1014.9F
LEWES DE         2000   49 56   90/ 16/ 20 1015.1F
15NM E FENWICK I 2050   50 52              1014.3F   4/ 5
OCEAN-CITY-INLET 2000   50 54   70/  7/ 13 1014.0F
WACHAPREAGUE VA  2000   53 61   60/ 12/ 15 1013.4F
THOMAS POINT MD  2100   49 58   70/ 13/ 16 1016.7R
GOOSES REEF MD   2100   51 58   80/ 14/ 16 1015.8R   2/ 3
COVE POINT MD    2000   52     130/  9/ 11 1015.0F
SOLOMONS ISLAND  2000   53 60   90/ 10/ 11   N/A
BISHOPS HEAD MD  2000   53 60   70/  8/ 12 1013.6S
POTOMAC MD       2100   54 59   90/ 10/ 12 1013.1F   1/ 2
CAMBRIDGE MD     2000   50 62   70/ 12/ 16 1014.0F
LEWISETTA VA     2000   54 61  100/ 11/ 13 1013.8F
RAPPAHANNOCK LGT 2000           60/ 10/ 11 1014.1F
STINGRAY PT      2100   55 62   90/  8/ 10 1014.0R   1/ 3
YORK RVR RNG VA  2000   56      80/ 11/ 13 1012.6F
YORKTOWN VA      2000   56 62   80/  9/ 12 1013.1F
JAMESTOWN VA     2100   58 68   80/  6/ 10   N/A     0
DOMINION TERM VA 2000   56      60/  8/ 12 1012.9F
KIPTOPEKE VA     2000      61   70/ 10/ 15   N/A
CHES BAY BRIDGE  2000   54 57   60/ 10/ 11 1012.5F
CAPE HENRY VA    2000   54      60/  8/  9   N/A
CHESAPEAKE LGHT  2000   54      60/  9/ 10 1013.3F
WILLOUBY STN VA  2000   55      60/ 10/ 12 1013.8F
CAPE HENRY BUOY  2012      57                N/A     3/ 5
CAPE CHARLES BUO 2026      56                N/A     3/ 5   2/ 5
OFFSHORE WE BUOY 2021      56                N/A     3/ 5   3/ 5
64NM E OF VA BCH 2050   58 56  140/  6/  6 1011.9F   3/ 5   3/ 5
DUCK PIER NC     2000   61 67   70/  6/  7 1011.7F
44100 DUCK FRF   2024      59                N/A     3/ 6
44056 DUCK FRF   2011      59                N/A     2/ 5
OREGON INLET NC  2000   70 65  200/ 13/ 15 1011.5F
HATTERAS NC      2000   73 69  200/ 12/ 16 1012.1F
DIAMOND SHLS NC  2050   74 72  210/ 17/ 19 1012.1F   4/ 6   2/11
CAPE LOOKOUT NC  2100   71     210/ 15/ 19 1011.9F
$$



USA.gov is the U.S. government's official web portal to all federal, state and local government web resources and services.